Weather History for Window Rock, AZ

Change the Weather History Date:

Friday, November 30, 2012

  Actual Average Record
Temperature  
Mean Temperature 36 °F -  
Max Temperature 57 °F 43 °F 73 °F (2000)
Min Temperature 16 °F 17 °F -7 °F (1952)
Degree Days  
Heating Degree Days 28    
Moisture  
Dew Point 19 °F    
Average Humidity 57    
Maximum Humidity 88    
Minimum Humidity 20    
Precipitation  
Precipitation 0.00 in - - ()
Sea Level Pressure  
Sea Level Pressure 30.17 in    
Wind  
Wind Speed 2 mph (SW)    
Max Wind Speed 16 mph    
Max Gust Speed 16 mph    
Visibility 10 miles    
Events      
Averages and records for this station are not official NWS values.
T = Trace of Precipitation, MM = Missing Value Source: NWS Daily Summary

Daily Weather History Graph

Daily Weather History Graph

Search for Another Location

Airport:

Trip Planner

Search our weather history database for the weather conditions in past years. The results will help you decide how hot, cold, wet, or windy it might be!

Date:

Astronomy

Nov. 30, 2012 Rise Set
Actual Time 7:07 AM MST 5:03 PM MST
Civil Twilight 6:39 AM MST 5:31 PM MST
Nautical Twilight 6:07 AM MST 6:02 PM MST
Astronomical Twilight 5:36 AM MST 6:33 PM MST
Moon 7:00 PM MST 8:41 AM MST
Length of Visible Light 10h 51m
Length of Day
9h 55m
Waning Gibbous, 96% of the Moon is Illuminated
Nov 30
Waning Gibbous
Dec 6
Last Quarter
Dec 13
New
Dec 19
First Quarter
Dec 28
Full

Hourly Weather History & Observations

Time (MST) Temp. Windchill Dew Point Humidity Pressure Visibility Wind Dir Wind Speed Gust Speed Precip Events Conditions
12:53 AM 21.0 °F - 16.0 °F 81% 30.17 in 10.0 mi Calm Calm - N/A   Clear
1:53 AM 21.0 °F - 17.1 °F 85% 30.17 in 10.0 mi Calm Calm - N/A   Clear
2:53 AM 17.1 °F - 14.0 °F 88% 30.18 in 10.0 mi Calm Calm - N/A   Clear
3:53 AM 21.0 °F - 17.1 °F 85% 30.17 in 10.0 mi Calm Calm - N/A   Clear
4:53 AM 18.0 °F - 15.1 °F 88% 30.19 in 10.0 mi Calm Calm - N/A   Clear
5:53 AM 16.0 °F - 12.9 °F 88% 30.24 in 10.0 mi Calm Calm - N/A   Clear
6:53 AM 18.0 °F - 14.0 °F 84% 30.25 in 10.0 mi Calm Calm - N/A   Clear
7:53 AM 19.0 °F - 16.0 °F 88% 30.31 in 10.0 mi Calm Calm - N/A   Clear
8:53 AM 28.9 °F - 21.0 °F 72% 30.27 in 10.0 mi Calm Calm - N/A   Clear
9:53 AM 39.9 °F - 26.1 °F 58% 30.24 in 10.0 mi Calm Calm - N/A   Clear
10:53 AM 46.9 °F - 28.9 °F 50% 30.19 in 10.0 mi Calm Calm - N/A   Clear
11:53 AM 52.0 °F - 27.0 °F 38% 30.15 in 10.0 mi SSE 4.6 mph - N/A   Clear
12:53 PM 57.0 °F - 23.0 °F 27% 30.10 in 10.0 mi SSW 11.5 mph 16.1 mph N/A   Clear
1:53 PM 57.9 °F - 21.0 °F 24% 30.07 in 10.0 mi SW 10.4 mph - N/A   Clear
2:53 PM 57.9 °F - 17.1 °F 20% 30.07 in 10.0 mi SW 16.1 mph - N/A   Clear
3:53 PM 57.0 °F - 17.1 °F 21% 30.07 in 10.0 mi SW 11.5 mph - N/A   Clear
4:53 PM 50.0 °F - 19.0 °F 29% 30.14 in 10.0 mi WSW 8.1 mph - N/A   Clear
5:53 PM 42.1 °F 39.2 °F 18.0 °F 38% 30.19 in 10.0 mi SSW 4.6 mph - N/A   Clear
6:53 PM 42.1 °F - 19.0 °F 40% 30.18 in 10.0 mi Calm Calm - N/A   Clear
7:53 PM 35.1 °F - 18.0 °F 50% 30.22 in 10.0 mi Calm Calm - N/A   Clear
8:53 PM 34.0 °F - 18.0 °F 52% 30.19 in 10.0 mi Calm Calm - N/A   Clear
9:53 PM 32.0 °F - 17.1 °F 54% 30.15 in 10.0 mi Calm Calm - N/A   Clear
10:53 PM 36.0 °F - 21.0 °F 55% 30.10 in 10.0 mi Calm Calm - N/A   Clear
11:53 PM 34.0 °F - 23.0 °F 64% 30.08 in 10.0 mi Calm Calm - N/A   Clear